Time,TemperatureF,DewpointF,PressureIn,WindDirection,WindDirectionDegrees,WindSpeedMPH,WindSpeedGustMPH,Humidity,HourlyPrecipIn,Conditions,Clouds,dailyrainin,SoftwareType,DateUTC
2013-04-04 00:03:00,32.0,19.0,-100.00,ESE,111,4.0,12.0,55,0.00,,,-99.99,,2013-04-04 04:03:00,
2013-04-04 00:13:00,31.0,18.0,-100.00,East,86,4.0,12.0,55,0.00,,,-99.99,,2013-04-04 04:13:00,
2013-04-04 00:23:00,31.0,18.0,-100.00,East,84,2.0,12.0,56,0.00,,,-99.99,,2013-04-04 04:23:00,
2013-04-04 00:33:00,31.0,19.0,-100.00,ENE,69,2.0,12.0,59,0.00,,,-99.99,,2013-04-04 04:33:00,
2013-04-04 00:43:00,28.0,19.0,-100.00,ENE,69,2.0,12.0,68,0.00,,,-99.99,,2013-04-04 04:43:00,
2013-04-04 00:52:00,28.0,18.0,-100.00,ENE,69,2.0,12.0,63,0.00,,,-99.99,,2013-04-04 04:52:00,
2013-04-04 01:02:00,28.0,18.0,-100.00,ENE,69,4.0,12.0,62,0.00,,,-99.99,,2013-04-04 05:02:00,
2013-04-04 01:13:00,29.0,18.0,-100.00,East,97,3.0,12.0,60,0.00,,,-99.99,,2013-04-04 05:13:00,
2013-04-04 01:23:00,29.0,19.0,-100.00,East,98,3.0,12.0,63,0.00,,,-99.99,,2013-04-04 05:23:00,
2013-04-04 01:32:00,29.0,18.0,-100.00,ESE,103,4.0,12.0,59,0.00,,,-99.99,,2013-04-04 05:32:00,
2013-04-04 01:42:00,29.0,18.0,-100.00,ESE,114,4.0,12.0,59,0.00,,,-99.99,,2013-04-04 05:42:00,
2013-04-04 01:52:00,29.0,18.0,-100.00,ESE,105,2.0,12.0,60,0.00,,,-99.99,,2013-04-04 05:52:00,
2013-04-04 02:02:00,28.0,19.0,-100.00,SE,125,1.0,12.0,64,0.00,,,-99.99,,2013-04-04 06:02:00,
2013-04-04 02:12:00,27.0,18.0,-100.00,ESE,122,2.0,12.0,66,0.00,,,-99.99,,2013-04-04 06:12:00,
2013-04-04 02:22:00,29.0,19.0,-100.00,SE,128,2.0,12.0,63,0.00,,,-99.99,,2013-04-04 06:22:00,
2013-04-04 02:32:00,28.0,18.0,-100.00,SE,124,2.0,12.0,62,0.00,,,-99.99,,2013-04-04 06:32:00,
2013-04-04 02:42:00,28.0,18.0,-100.00,SE,135,2.0,12.0,63,0.00,,,-99.99,,2013-04-04 06:42:00,
2013-04-04 02:52:00,28.0,18.0,-100.00,SE,139,2.0,12.0,63,0.00,,,-99.99,,2013-04-04 06:52:00,
2013-04-04 03:02:00,28.0,18.0,-100.00,SE,146,2.0,12.0,62,0.00,,,-99.99,,2013-04-04 07:02:00,
2013-04-04 03:12:00,28.0,18.0,-100.00,SE,144,2.0,12.0,62,0.00,,,-99.99,,2013-04-04 07:12:00,
2013-04-04 03:22:00,29.0,18.0,-100.00,SE,141,2.0,12.0,60,0.00,,,-99.99,,2013-04-04 07:22:00,
2013-04-04 03:32:00,28.0,18.0,-100.00,SE,136,2.0,12.0,62,0.00,,,-99.99,,2013-04-04 07:32:00,
2013-04-04 03:43:00,27.0,18.0,-100.00,SE,142,3.0,12.0,62,0.00,,,-99.99,,2013-04-04 07:43:00,
2013-04-04 03:52:00,28.0,18.0,-100.00,SE,135,3.0,12.0,63,0.00,,,-99.99,,2013-04-04 07:52:00,
2013-04-04 04:03:00,28.0,18.0,-100.00,SE,132,2.0,12.0,60,0.00,,,-99.99,,2013-04-04 08:03:00,
2013-04-04 04:12:00,29.0,18.0,-100.00,SE,124,2.0,12.0,62,0.00,,,-99.99,,2013-04-04 08:12:00,
2013-04-04 04:23:00,28.0,18.0,-100.00,ESE,122,2.0,12.0,62,0.00,,,-99.99,,2013-04-04 08:23:00,
2013-04-04 04:32:00,28.0,18.0,-100.00,SE,128,2.0,12.0,62,0.00,,,-99.99,,2013-04-04 08:32:00,
2013-04-04 04:43:00,29.0,19.0,-100.00,ESE,120,3.0,12.0,64,0.00,,,-99.99,,2013-04-04 08:43:00,
2013-04-04 04:52:00,28.0,18.0,-100.00,ESE,115,4.0,12.0,63,0.00,,,-99.99,,2013-04-04 08:52:00,
2013-04-04 05:03:00,29.0,19.0,-100.00,SE,127,3.0,12.0,63,0.00,,,-99.99,,2013-04-04 09:03:00,
2013-04-04 05:13:00,28.0,18.0,-100.00,ESE,121,2.0,12.0,63,0.00,,,-99.99,,2013-04-04 09:13:00,
2013-04-04 05:22:00,29.0,19.0,-100.00,ESE,115,2.0,12.0,63,0.00,,,-99.99,,2013-04-04 09:22:00,
2013-04-04 05:34:00,27.0,18.0,-100.00,ESE,121,3.0,12.0,63,0.00,,,-99.99,,2013-04-04 09:34:00,
2013-04-04 05:43:00,27.0,18.0,-100.00,SE,135,2.0,12.0,64,0.00,,,-99.99,,2013-04-04 09:43:00,
2013-04-04 05:53:00,28.0,19.0,-100.00,SE,129,2.0,12.0,64,0.00,,,-99.99,,2013-04-04 09:53:00,
2013-04-04 06:04:00,27.0,18.0,-100.00,ESE,118,2.0,12.0,64,0.00,,,-99.99,,2013-04-04 10:04:00,
2013-04-04 06:12:00,29.0,19.0,-100.00,East,101,2.0,12.0,63,0.00,,,-99.99,,2013-04-04 10:12:00,
2013-04-04 06:24:00,27.0,18.0,-100.00,East,93,1.0,12.0,66,0.00,,,-99.99,,2013-04-04 10:24:00,
2013-04-04 06:33:00,25.0,16.0,-100.00,ENE,70,2.0,12.0,66,0.00,,,-99.99,,2013-04-04 10:33:00,
2013-04-04 06:43:00,27.0,19.0,-100.00,East,98,2.0,12.0,69,0.00,,,-99.99,,2013-04-04 10:43:00,
2013-04-04 06:53:00,27.0,19.0,-100.00,East,90,2.0,12.0,67,0.00,,,-99.99,,2013-04-04 10:53:00,
2013-04-04 07:03:00,28.0,18.0,-100.00,East,88,4.0,12.0,64,0.00,,,-99.99,,2013-04-04 11:03:00,
2013-04-04 07:12:00,28.0,19.0,-100.00,East,96,2.0,12.0,66,0.00,,,-99.99,,2013-04-04 11:12:00,
2013-04-04 07:22:00,27.0,19.0,-100.00,East,93,4.0,12.0,68,0.00,,,-99.99,,2013-04-04 11:22:00,
2013-04-04 07:33:00,27.0,18.0,-100.00,East,94,2.0,12.0,67,0.00,,,-99.99,,2013-04-04 11:33:00,
2013-04-04 07:42:00,26.0,18.0,-100.00,East,86,2.0,12.0,69,0.00,,,-99.99,,2013-04-04 11:42:00,
2013-04-04 07:53:00,26.0,18.0,-100.00,East,101,2.0,12.0,69,0.00,,,-99.99,,2013-04-04 11:53:00,
2013-04-04 08:03:00,26.0,19.0,-100.00,East,91,2.0,12.0,71,0.00,,,-99.99,,2013-04-04 12:03:00,
2013-04-04 08:12:00,26.0,19.0,-100.00,East,97,2.0,12.0,69,0.00,,,-99.99,,2013-04-04 12:12:00,
2013-04-04 08:22:00,27.0,19.0,-100.00,East,96,1.0,12.0,67,0.00,,,-99.99,,2013-04-04 12:22:00,
2013-04-04 08:33:00,28.0,18.0,-100.00,East,100,2.0,12.0,63,0.00,,,-99.99,,2013-04-04 12:33:00,
2013-04-04 08:43:00,27.0,19.0,-100.00,ESE,103,1.0,12.0,67,0.00,,,-99.99,,2013-04-04 12:43:00,
2013-04-04 08:52:00,29.0,21.0,-100.00,ESE,110,1.0,12.0,67,0.00,,,-99.99,,2013-04-04 12:52:00,
2013-04-04 09:02:00,29.0,18.0,-100.00,East,98,2.0,12.0,60,0.00,,,-99.99,,2013-04-04 13:02:00,
2013-04-04 09:12:00,31.0,19.0,-100.00,ESE,122,2.0,12.0,59,0.00,,,-99.99,,2013-04-04 13:12:00,
2013-04-04 09:22:00,31.0,19.0,-100.00,SE,136,3.0,12.0,62,0.00,,,-99.99,,2013-04-04 13:22:00,
2013-04-04 09:33:00,31.0,21.0,-100.00,ESE,115,3.0,12.0,64,0.00,,,-99.99,,2013-04-04 13:33:00,
2013-04-04 09:43:00,32.0,21.0,-100.00,SE,129,4.0,12.0,60,0.00,,,-99.99,,2013-04-04 13:43:00,
2013-04-04 09:52:00,32.0,21.0,-100.00,SE,136,6.0,12.0,60,0.00,,,-99.99,,2013-04-04 13:52:00,
2013-04-04 10:03:00,33.0,19.0,-100.00,SE,127,6.0,12.0,56,0.00,,,-99.99,,2013-04-04 14:03:00,
2013-04-04 10:13:00,34.0,19.0,-100.00,SE,136,4.0,12.0,53,0.00,,,-99.99,,2013-04-04 14:13:00,
2013-04-04 10:22:00,36.0,23.0,-100.00,SE,135,4.0,12.0,54,0.00,,,-99.99,,2013-04-04 14:22:00,
2013-04-04 10:33:00,36.0,19.0,-100.00,ESE,120,6.0,12.0,49,0.00,,,-99.99,,2013-04-04 14:33:00,
2013-04-04 10:43:00,37.0,19.0,-100.00,SE,132,6.0,12.0,46,0.00,,,-99.99,,2013-04-04 14:43:00,
2013-04-04 10:52:00,37.0,19.0,-100.00,SSE,156,6.0,12.0,46,0.00,,,-99.99,,2013-04-04 14:52:00,
2013-04-04 11:03:00,39.0,19.0,-100.00,SSE,162,5.0,12.0,42,0.00,,,-99.99,,2013-04-04 15:03:00,
2013-04-04 11:12:00,40.0,18.0,-100.00,ESE,122,3.0,12.0,38,0.00,,,-99.99,,2013-04-04 15:12:00,
2013-04-04 11:23:00,41.0,18.0,-100.00,SSE,162,4.0,12.0,36,0.00,,,-99.99,,2013-04-04 15:23:00,
2013-04-04 11:33:00,42.0,16.0,-100.00,SSE,168,4.0,12.0,34,0.00,,,-99.99,,2013-04-04 15:33:00,
2013-04-04 11:43:00,43.0,16.0,-100.00,SE,146,4.0,12.0,32,0.00,,,-99.99,,2013-04-04 15:43:00,
2013-04-04 11:53:00,43.0,16.0,-100.00,ESE,112,4.0,12.0,32,0.00,,,-99.99,,2013-04-04 15:53:00,
2013-04-04 12:03:00,43.0,16.0,-100.00,SSE,151,4.0,12.0,31,0.00,,,-99.99,,2013-04-04 16:03:00,
2013-04-04 12:13:00,43.0,16.0,-100.00,South,184,6.0,6.0,32,0.00,,,-99.99,,2013-04-04 16:13:00,
2013-04-04 12:24:00,45.0,18.0,-100.00,ESE,120,6.0,8.0,33,0.00,,,-99.99,,2013-04-04 16:24:00,
2013-04-04 12:33:00,47.0,18.0,-100.00,SSE,168,3.0,8.0,29,0.00,,,-99.99,,2013-04-04 16:33:00,
2013-04-04 12:43:00,46.0,14.0,-100.00,East,81,3.0,8.0,25,0.00,,,-99.99,,2013-04-04 16:43:00,
2013-04-04 12:53:00,47.0,12.0,-100.00,SE,129,4.0,8.0,23,0.00,,,-99.99,,2013-04-04 16:53:00,
2013-04-04 13:03:00,47.0,14.0,-100.00,East,80,4.0,8.0,25,0.00,,,-99.99,,2013-04-04 17:03:00,
2013-04-04 13:14:00,48.0,12.0,-100.00,ESE,118,2.0,8.0,23,0.00,,,-99.99,,2013-04-04 17:14:00,
2013-04-04 13:23:00,48.0,14.0,-100.00,SE,146,4.0,8.0,24,0.00,,,-99.99,,2013-04-04 17:23:00,
2013-04-04 13:33:00,49.0,12.0,-100.00,SE,144,2.0,8.0,22,0.00,,,-99.99,,2013-04-04 17:33:00,
2013-04-04 13:43:00,47.0,12.0,-100.00,ENE,72,3.0,8.0,23,0.00,,,-99.99,,2013-04-04 17:43:00,
2013-04-04 13:52:00,51.0,16.0,-100.00,SE,125,1.0,8.0,23,0.00,,,-99.99,,2013-04-04 17:52:00,
2013-04-04 14:02:00,49.0,14.0,-100.00,SE,127,2.0,8.0,23,0.00,,,-99.99,,2013-04-04 18:02:00,
2013-04-04 14:12:00,51.0,16.0,-100.00,South,189,3.0,8.0,23,0.00,,,-99.99,,2013-04-04 18:12:00,
2013-04-04 14:23:00,51.0,14.0,-100.00,SSE,160,5.0,8.0,22,0.00,,,-99.99,,2013-04-04 18:23:00,
2013-04-04 14:32:00,51.0,14.0,-100.00,SW,225,4.0,8.0,22,0.00,,,-99.99,,2013-04-04 18:32:00,
2013-04-04 14:43:00,51.0,16.0,-100.00,SSW,193,2.0,8.0,24,0.00,,,-99.99,,2013-04-04 18:43:00,
2013-04-04 14:52:00,51.0,16.0,-100.00,South,189,5.0,8.0,24,0.00,,,-99.99,,2013-04-04 18:52:00,
2013-04-04 15:02:00,51.0,16.0,-100.00,South,187,4.0,8.0,23,0.00,,,-99.99,,2013-04-04 19:02:00,
2013-04-04 15:12:00,52.0,16.0,-100.00,South,172,5.0,8.0,23,0.00,,,-99.99,,2013-04-04 19:12:00,
2013-04-04 15:22:00,53.0,14.0,-100.00,SSW,206,4.0,8.0,20,0.00,,,-99.99,,2013-04-04 19:22:00,
2013-04-04 15:33:00,52.0,7.0,-100.00,South,175,6.0,8.0,15,0.00,,,-99.99,,2013-04-04 19:33:00,
2013-04-04 15:42:00,53.0,12.0,-100.00,SSW,201,4.0,8.0,19,0.00,,,-99.99,,2013-04-04 19:42:00,
2013-04-04 15:52:00,54.0,14.0,-100.00,South,169,2.0,8.0,19,0.00,,,-99.99,,2013-04-04 19:52:00,
2013-04-04 16:04:00,53.0,16.0,-100.00,SSW,203,5.0,8.0,22,0.00,,,-99.99,,2013-04-04 20:04:00,
2013-04-04 16:12:00,55.0,14.0,-100.00,NW,313,2.0,8.0,19,0.00,,,-99.99,,2013-04-04 20:12:00,
2013-04-04 16:23:00,55.0,14.0,-100.00,South,189,3.0,8.0,19,0.00,,,-99.99,,2013-04-04 20:23:00,
2013-04-04 16:32:00,56.0,19.0,-100.00,SSW,207,3.0,8.0,23,0.00,,,-99.99,,2013-04-04 20:32:00,
2013-04-04 16:42:00,56.0,16.0,-100.00,SSW,199,4.0,8.0,19,0.00,,,-99.99,,2013-04-04 20:42:00,
2013-04-04 16:52:00,56.0,14.0,-100.00,SSE,166,6.0,8.0,18,0.00,,,-99.99,,2013-04-04 20:52:00,
2013-04-04 17:02:00,56.0,14.0,-100.00,SSE,160,5.0,8.0,19,0.00,,,-99.99,,2013-04-04 21:02:00,
2013-04-04 17:12:00,56.0,16.0,-100.00,WSW,240,3.0,8.0,19,0.00,,,-99.99,,2013-04-04 21:12:00,
2013-04-04 17:22:00,56.0,16.0,-100.00,SW,228,6.0,8.0,19,0.00,,,-99.99,,2013-04-04 21:22:00,
2013-04-04 17:33:00,56.0,14.0,-100.00,South,187,5.0,8.0,18,0.00,,,-99.99,,2013-04-04 21:33:00,
2013-04-04 17:43:00,57.0,16.0,-100.00,West,269,6.0,10.0,19,0.00,,,-99.99,,2013-04-04 21:43:00,
2013-04-04 17:53:00,57.0,14.0,-100.00,WSW,244,6.0,10.0,18,0.00,,,-99.99,,2013-04-04 21:53:00,
2013-04-04 18:04:00,56.0,14.0,-100.00,WNW,290,6.0,10.0,19,0.00,,,-99.99,,2013-04-04 22:04:00,
2013-04-04 18:10:00,57.0,16.0,-100.00,West,272,6.0,10.0,19,0.00,,,-99.99,,2013-04-04 22:10:00,
2013-04-04 18:12:00,57.0,16.0,-100.00,WSW,249,4.0,10.0,18,0.00,,,-99.99,,2013-04-04 22:12:00,
2013-04-04 18:23:00,57.0,14.0,-100.00,SW,231,4.0,10.0,18,0.00,,,-99.99,,2013-04-04 22:23:00,
2013-04-04 18:33:00,57.0,16.0,-100.00,West,272,6.0,10.0,19,0.00,,,-99.99,,2013-04-04 22:33:00,
2013-04-04 18:43:00,57.0,16.0,-100.00,West,272,6.0,10.0,19,0.00,,,-99.99,,2013-04-04 22:43:00,
2013-04-04 18:53:00,57.0,16.0,-100.00,West,272,6.0,10.0,19,0.00,,,-99.99,,2013-04-04 22:53:00,
2013-04-04 19:03:00,57.0,16.0,-100.00,West,272,6.0,10.0,19,0.00,,,-99.99,,2013-04-04 23:03:00,